Die Mitgliedschaft ist kostenlos – mit vollem Zugang zu allen Funktionen; Upgrades bieten Extras wie Bannerwerbung und Newsletter-Platzierungen. ✅ Signatur-Links sind jetzt für alle frei. Teilen Sie Ihre eigenen Gedanken und Erfahrungen; bei Verstößen können Konten geschlossen werden.

Willkommen!

Durch Ihre Registrierung bei uns können Sie mit anderen Mitgliedern unserer Community diskutieren, teilen und private Nachrichten austauschen.

Jetzt anmelden!

Live-Überblick: .DE-Domainauktionen

Möchten Sie eine Premium-Domain .DE kaufen? Unser Live-Auktionsfeed für Domains bietet Ihnen eine einfache Möglichkeit, die perfekte Webadresse für Ihr Unternehmen zu sichern. Mit einer großen Auswahl an Angeboten finden Sie Domains mit SEO-Potenzial, Markenfähigkeit und hoher Wiedererkennbarkeit.

Seien Sie dabei und bieten Sie auf Ihre Wunsch-Domain .DE! Consultdomain.de-Mitglieder können unsere Plattform nutzen, um wertvolle Domains zu finden und in Echtzeit zu konkurrieren. Verpassen Sie nicht diese spannende Gelegenheit, Ihre Online-Präsenz zu stärken.

Live 30.437 auctions 0 selected
Sammlungen
Domain DL Current bid Gebote Ends in Plattform REC RE WFAY DW
freezefusion.de 12 0,00€ 0 Sep. 6, 19:00 6 .co.uk .com .de 2
freie-waehler-berger.de 20 0,00€ 0 Sep. 6, 19:00 0 0
freque.de 6 0,00€ 0 Sep. 6, 19:00 12 .biz .co.uk .com 0
frey-geschenk.de 13 0,00€ 0 Sep. 6, 19:00 0 0
freyungerwirte.de 14 0,00€ 0 Sep. 6, 19:00 0 4
fridayforfans.de 13 0,00€ 0 Sep. 6, 19:00 2 .com .de 3
frischbacken.de 12 0,00€ 0 Sep. 6, 19:00 0 2
friseur-konvex.de 14 0,00€ 0 Sep. 6, 19:00 0 0
friseur-s-bystron.de 17 0,00€ 0 Sep. 6, 19:00 0 0
ft-cars.de 7 0,00€ 0 Sep. 6, 19:00 2 .com .de 0
fth-law.de 7 0,00€ 0 Sep. 6, 19:00 2 .com .de 0
fufmedia.de 8 0,00€ 0 Sep. 6, 19:00 0 0
fuhnetal.de 8 0,00€ 0 Sep. 6, 19:00 0 0
fullrange-speakers.de 18 0,00€ 0 Sep. 6, 19:00 1 .com 0
fussball360.de 11 0,00€ 0 Sep. 6, 19:00 2 .com .de 0
fussboden-estrich.de 17 0,00€ 0 Sep. 6, 19:00 0 0
futsal-baelle.de 13 0,00€ 0 Sep. 6, 19:00 0 0
futsal-fussball.de 15 0,00€ 0 Sep. 6, 19:00 0 0
galvino.de 7 0,00€ 0 Sep. 6, 19:00 3 .com .help .top 2
gamedepots.de 10 0,00€ 0 Sep. 6, 19:00 2 .com .de 2
garni-hotel-an-der-weide.de 24 0,00€ 0 Sep. 6, 19:00 0 0
garten-erdbau-gehrmann.de 22 0,00€ 0 Sep. 6, 19:00 0 0
garten-falkenstein.de 18 0,00€ 0 Sep. 6, 19:00 0 0
gaststaette-schaper.de 19 0,00€ 0 Sep. 6, 19:00 0 0
gebreakank.de 10 0,00€ 0 Sep. 6, 19:00 2 .com .de 0
gegensprechanlage-shop.de 22 0,00€ 0 Sep. 6, 19:00 0 0
gegenwelle.de 10 0,00€ 0 Sep. 6, 19:00 1 .com 0
geggo-funpage.de 13 0,00€ 0 Sep. 6, 19:00 0 0
geilesusi36.de 11 0,00€ 0 Sep. 6, 19:00 0 0
geldverdieneninternet1.de 22 0,00€ 0 Sep. 6, 19:00 0 0
gemeindewirtschaftsteuer.de 24 0,00€ 0 Sep. 6, 19:00 0 0
gems-from-the-past.de 18 0,00€ 0 Sep. 6, 19:00 0 0
generationenberatung-prueser.de 28 0,00€ 0 Sep. 6, 19:00 0 0
germanic-parts.de 14 0,00€ 0 Sep. 6, 19:00 0 0
germanstars.de 11 0,00€ 0 Sep. 6, 19:00 2 .com .de 2
gesangsstudio-gudrun-baer.de 25 0,00€ 0 Sep. 6, 19:00 0 0
geschenkte-gutscheine.de 21 0,00€ 0 Sep. 6, 19:00 0 0
geschichteeineslebens.de 21 0,00€ 0 Sep. 6, 19:00 0 5
geschichte-geschichten-agymsn.de 29 0,00€ 0 Sep. 6, 19:00 0 0
geschmacksarena.de 15 0,00€ 0 Sep. 6, 19:00 0 4
gesundfressen.de 13 0,00€ 0 Sep. 6, 19:00 0 0
gesundheit-geht-uns-alle-an.de 27 0,00€ 0 Sep. 6, 19:00 0 0
gesundheits-jobs.de 16 0,00€ 0 Sep. 6, 19:00 2 .com .de 0
getagame.de 8 0,00€ 0 Sep. 6, 19:00 6 .co.uk .com .de 2
gewinnspiele-finder.de 19 0,00€ 0 Sep. 6, 19:00 0 0
gfwservice.de 10 0,00€ 0 Sep. 6, 19:00 1 .xyz 0
ghu-datacomp.de 12 0,00€ 0 Sep. 6, 19:00 0 0
ghudatacomp.de 11 0,00€ 0 Sep. 6, 19:00 0 0
ghu-zeiterfassung.de 17 0,00€ 0 Sep. 6, 19:00 0 0
gifts-and-more.de 14 0,00€ 0 Sep. 6, 19:00 3 .com .de .net 0
gitcitadel.de 10 0,00€ 0 Sep. 6, 19:00 2 .com .de 2
giucaffe.de 8 0,00€ 0 Sep. 6, 19:00 0 0
gk-fricke.de 9 0,00€ 0 Sep. 6, 19:00 1 .com 0
glanzdach.de 9 0,00€ 0 Sep. 6, 19:00 2 .com .de 0
glitzer-tattoo-fee.de 18 0,00€ 0 Sep. 6, 19:00 0 0
glowessentials.de 14 0,00€ 0 Sep. 6, 19:00 10 .com .de .fr 2
gl-ranch.de 8 0,00€ 0 Sep. 6, 19:00 0 0
gm-flora-forst.de 14 0,00€ 0 Sep. 6, 19:00 0 0
go-for-marketing.de 16 0,00€ 0 Sep. 6, 19:00 1 .com 0
gojoyn.de 6 0,00€ 0 Sep. 6, 19:00 2 .com .org 0
goldenbetz.de 10 0,00€ 0 Sep. 6, 19:00 3 .com .fr .fun 2
golden-ofdonscottage-fohler.de 27 0,00€ 0 Sep. 6, 19:00 0 0
gomingo.de 7 0,00€ 0 Sep. 6, 19:00 6 .app .co.uk .com 2
goodbyeledig.de 12 0,00€ 0 Sep. 6, 19:00 0 3
goodiebox-outlet.de 16 0,00€ 0 Sep. 6, 19:00 1 .com 0
goodieboxoutlet.de 15 0,00€ 0 Sep. 6, 19:00 1 .com 3
good-lab.de 8 0,00€ 0 Sep. 6, 19:00 5 .click .com .fr 0
good-labs.de 9 0,00€ 0 Sep. 6, 19:00 1 .com 0
goshops.de 7 0,00€ 0 Sep. 6, 19:00 14 .app .click .co.uk 2
gouadeloupe.de 11 0,00€ 0 Sep. 6, 19:00 1 .fr 3
gpskatzen.de 9 0,00€ 0 Sep. 6, 19:00 1 .com 2
grahamkennedy.de 13 0,00€ 0 Sep. 6, 19:00 3 .co.uk .com .dev 2
greyish-magazine.de 16 0,00€ 0 Sep. 6, 19:00 0 0
grip-schuhe.de 11 0,00€ 0 Sep. 6, 19:00 0 0
grit-poehlmann.de 14 0,00€ 0 Sep. 6, 19:00 0 0
grodm.de 5 0,00€ 0 Sep. 6, 19:00 2 .com .xyz 2
grossundaussenhandelskaufmann.de 29 0,00€ 0 Sep. 6, 19:00 0 0
growmyday.de 9 0,00€ 0 Sep. 6, 19:00 1 .com 3
growth-architects.de 17 0,00€ 0 Sep. 6, 19:00 1 .com 0
growtharchitects.de 16 0,00€ 0 Sep. 6, 19:00 13 .agency .berlin .co.uk 2
gruenderstore.de 13 0,00€ 0 Sep. 6, 19:00 1 .com 0
gruenhagen-ladenbau.de 19 0,00€ 0 Sep. 6, 19:00 0 0
grupmozaik.de 10 0,00€ 0 Sep. 6, 19:00 0 0
gtm-finanz.de 10 0,00€ 0 Sep. 6, 19:00 0 0
guckflix.de 8 0,00€ 0 Sep. 6, 19:00 1 .site 2
guido-luck.de 10 0,00€ 0 Sep. 6, 19:00 0 0
gus-ing-hh.de 10 0,00€ 0 Sep. 6, 19:00 0 0
gutschein-code-download.de 23 0,00€ 0 Sep. 6, 19:00 0 0
gutschein-codes-finden.de 22 0,00€ 0 Sep. 6, 19:00 0 0
gutschein-discount.de 18 0,00€ 0 Sep. 6, 19:00 0 0
gutschein-erhalten.de 18 0,00€ 0 Sep. 6, 19:00 0 0
gutscheine-waldkater.de 20 0,00€ 0 Sep. 6, 19:00 0 0
gutschein-schotte.de 17 0,00€ 0 Sep. 6, 19:00 1 .com 0
gx-gruppe.de 9 0,00€ 0 Sep. 6, 19:00 0 0
haarkreativ-templin.de 19 0,00€ 0 Sep. 6, 19:00 0 0
habitwall.de 9 0,00€ 0 Sep. 6, 19:00 1 .com 2
haering-wg.de 10 0,00€ 0 Sep. 6, 19:00 0 0
hageva-nawaro.de 13 0,00€ 0 Sep. 6, 19:00 0 0
haktanonal.de 10 0,00€ 0 Sep. 6, 19:00 1 .com 3
halepaghen-schule.de 17 10,00€ 1 Sep. 6, 19:00 0 0
8.301–8.400 of 30.437
Zurück
Oben